TimeEST,TemperatureF,Dew PointF,Humidity,Sea Level PressureIn,VisibilityMPH,Wind Direction,Wind SpeedMPH,Gust SpeedMPH,PrecipitationIn,Events,Conditions,WindDirDegrees,DateUTC
12:56 AM,36.0,33.1,89,30.24,4.0,ESE,10.4,-,N/A,,Overcast,120,2012-12-01 05:56:00
1:23 AM,35.6,33.8,93,30.22,2.5,East,10.4,-,N/A,,Overcast,100,2012-12-01 06:23:00
1:37 AM,35.6,33.8,93,30.21,1.5,ESE,8.1,-,N/A,,Overcast,120,2012-12-01 06:37:00
2:17 AM,35.6,33.8,93,30.20,0.8,ESE,9.2,-,N/A,,Overcast,120,2012-12-01 07:17:00
2:48 AM,35.6,33.8,93,30.22,1.0,ESE,6.9,-,N/A,,Overcast,110,2012-12-01 07:48:00
2:56 AM,35.1,34.0,96,30.25,1.0,ESE,8.1,-,N/A,,Overcast,110,2012-12-01 07:56:00
3:03 AM,35.6,33.8,93,30.22,0.8,ESE,10.4,-,N/A,,Overcast,120,2012-12-01 08:03:00
3:56 AM,35.1,34.0,96,30.24,0.5,SE,9.2,-,N/A,Fog,Fog,130,2012-12-01 08:56:00
4:56 AM,36.0,35.1,97,30.24,0.5,SE,10.4,-,N/A,Fog,Fog,130,2012-12-01 09:56:00
5:56 AM,36.0,35.1,97,30.24,0.5,ESE,10.4,-,N/A,Fog,Fog,120,2012-12-01 10:56:00
6:56 AM,36.0,35.1,97,30.22,0.5,SE,8.1,-,N/A,Fog,Fog,140,2012-12-01 11:56:00
7:56 AM,37.0,36.0,96,30.25,0.8,SE,8.1,-,N/A,,Overcast,130,2012-12-01 12:56:00
8:16 AM,37.4,35.6,93,30.22,0.2,SE,10.4,-,N/A,Fog,Fog,140,2012-12-01 13:16:00
8:39 AM,37.4,35.6,93,30.21,0.5,SE,9.2,17.3,N/A,Fog,Fog,130,2012-12-01 13:39:00
9:56 AM,37.9,37.0,97,30.24,0.5,SE,8.1,-,N/A,Fog,Fog,130,2012-12-01 14:56:00
10:21 AM,37.4,37.4,100,30.20,1.0,SE,8.1,-,N/A,,Overcast,140,2012-12-01 15:21:00
10:56 AM,39.0,37.0,93,30.22,1.2,SE,10.4,-,N/A,,Overcast,140,2012-12-01 15:56:00
11:56 AM,39.9,37.9,93,30.20,2.0,SSE,8.1,-,N/A,,Overcast,160,2012-12-01 16:56:00
12:41 PM,42.8,39.2,87,30.15,3.0,South,5.8,-,N/A,,Overcast,170,2012-12-01 17:41:00
12:56 PM,44.1,39.9,85,30.16,3.0,South,6.9,-,N/A,,Overcast,170,2012-12-01 17:56:00
1:56 PM,46.9,41.0,80,30.13,4.0,SSE,5.8,-,N/A,,Haze,150,2012-12-01 18:56:00
2:56 PM,51.1,42.1,71,30.12,5.0,SSE,8.1,-,N/A,,Haze,160,2012-12-01 19:56:00
3:56 PM,53.1,44.1,71,30.10,6.0,South,8.1,-,N/A,,Haze,180,2012-12-01 20:56:00
4:56 PM,52.0,44.1,74,30.09,6.0,SSE,9.2,-,N/A,,Haze,150,2012-12-01 21:56:00
5:06 PM,53.6,44.6,72,30.06,7.0,SSE,10.4,-,N/A,,Overcast,160,2012-12-01 22:06:00
5:56 PM,52.0,44.1,74,30.07,7.0,SSE,9.2,-,N/A,,Mostly Cloudy,160,2012-12-01 22:56:00
6:11 PM,51.8,44.6,76,30.04,7.0,South,9.2,-,N/A,,Mostly Cloudy,170,2012-12-01 23:11:00
6:56 PM,53.1,46.0,77,30.05,7.0,South,8.1,-,N/A,,Scattered Clouds,170,2012-12-01 23:56:00
7:56 PM,55.9,46.9,72,30.04,9.0,South,15.0,24.2,N/A,,Overcast,180,2012-12-02 00:56:00
8:56 PM,55.9,46.0,69,30.03,10.0,South,16.1,24.2,N/A,,Overcast,190,2012-12-02 01:56:00
9:56 PM,55.9,45.0,67,30.02,10.0,South,17.3,24.2,N/A,,Overcast,190,2012-12-02 02:56:00
10:56 PM,55.9,44.1,64,30.01,10.0,South,19.6,26.5,N/A,,Mostly Cloudy,190,2012-12-02 03:56:00
11:56 PM,55.0,45.0,69,30.00,10.0,SSW,16.1,25.3,0.00,,Mostly Cloudy,200,2012-12-02 04:56:00